Cap FAP David Abenzur Rengifo International Airport
SPCL : rendu visible

Aérodrome :











RETROUVEZ-NOUS SUR...

 
LOGIN :

S'inscrire | Disclaimer

   EN    FR    IT 

 









Légende :    VFR   VFR Marginal   IFR   IFR Intensif   IFR Très Intensif
Visi : 
Plafond : 
>= 8 km
>= 3000ft
5 à 8 km
1000 à 3000 ft
1500m à 5 km
500 à 1000 ft
800 à 1500m
200 à 500 ft
< 800m
< 200 ft
Symboles :   Orages  Brouillard  Fortes neiges  Fortes précipitations  Vent > 20 kt






- Altitude de l'aérodrome : 513 ft
- Code IATA : PCL


SPCL - Cap FAP David Abenzur Rengifo International

DERNIER METAR :
  • 111800Z 05004KT 9999 BKN020 28/22 Q1014 RMK BIRD HAZARD RWY 02/20 PP000

METARs EXPIRÉS :
  • 111700Z 11001KT 9999 BKN020 BKN070 27/22 Q1015 RMK BIRD HAZARD RWY 02/20 PP000
  • 111600Z 28002KT 9999 BKN020 BKN070 27/22 Q1015 RMK BIRD HAZARD RWY 02/20 PP000

TAF SPCL
Valide du 11 à 18h jusqu'au 12 à 18h UTC


111700Z 1118/1218 00000KT 9999 BKN020 BKN070 TX32/1120Z TN22/1211Z
TEMPO 1118/1122 36010KT 7000 SHRA FEW030TCU SCT100
BECMG 1122/1201 23004KT 9999 SCT020
FIR SPIM / Amérique du Sud



MET'MAP, la Météo Aéronautique d'un coup d'oeil ! - Copyright ORBIFLY Décembre 2007 - Disclaimer

ORBIFLY MET'MAP TEAM :

Programmation & Développement : Alexandra Zaïnal
Sur une idée originale de : Baudouin d'Aumeries
Assistance à la programmation : Marc-Olivier Méhu
Soutien technique & logistique : Manuel Goepfert

Contact : metmap@orbifly.com




SOURCES & CREDITS :

   NOAA       Earth
Advisory